AAL2760 KILM-KCLT

Flight info

Callsign AAL2760
Flight time 0h 47m
Altitude 28000
Route OKNEE MLLET3
Aircraft A319/M-SDE3FGHIRWY/LB1

Departure

Time 2026-05-06 23:39
Airport Wilmington International Airport (KILM)

Arrival

Time 2026-05-07 00:26
Airport Charlotte Douglas International Airport (KCLT)
Time Latitude Longitude Altitude Speed Heading
2026-05-06 23:08 34.26597 -77.90911 36 ft 0 kts 12°
2026-05-06 23:17 34.26596 -77.90911 36 ft 0 kts 12°
2026-05-06 23:20 34.26595 -77.90912 36 ft 2 kts 12°
2026-05-06 23:20 34.26578 -77.90916 34 ft 2 kts 12°
2026-05-06 23:21 34.26562 -77.90920 34 ft 2 kts 11°
2026-05-06 23:21 34.26546 -77.90924 35 ft 2 kts 11°
2026-05-06 23:21 34.26530 -77.90927 34 ft 2 kts 10°
2026-05-06 23:21 34.26513 -77.90931 32 ft 2 kts
2026-05-06 23:22 34.26497 -77.90934 33 ft 2 kts
2026-05-06 23:22 34.26482 -77.90938 29 ft 1 kts 34°
2026-05-06 23:22 34.26481 -77.90939 29 ft 0 kts 39°
2026-05-06 23:32 34.26486 -77.90933 32 ft 4 kts 45°
2026-05-06 23:32 34.26523 -77.90886 34 ft 11 kts 48°
2026-05-06 23:32 34.26579 -77.90808 34 ft 14 kts 48°
2026-05-06 23:32 34.26650 -77.90712 33 ft 17 kts 47°
2026-05-06 23:33 34.26727 -77.90607 33 ft 15 kts 48°
2026-05-06 23:33 34.26792 -77.90538 33 ft 8 kts 12°
2026-05-06 23:33 34.26882 -77.90561 33 ft 18 kts 335°
2026-05-06 23:33 34.27031 -77.90630 33 ft 28 kts 340°
2026-05-06 23:34 34.27177 -77.90730 35 ft 23 kts 329°
2026-05-06 23:34 34.27320 -77.90825 34 ft 24 kts 332°
2026-05-06 23:34 34.27466 -77.90912 35 ft 23 kts 349°
2026-05-06 23:34 34.27620 -77.90950 32 ft 22 kts 350°
2026-05-06 23:35 34.27763 -77.90983 35 ft 20 kts 348°
2026-05-06 23:35 34.27891 -77.91010 37 ft 18 kts 350°
2026-05-06 23:35 34.28000 -77.91038 40 ft 11 kts 357°
2026-05-06 23:35 34.28039 -77.91019 41 ft 6 kts 40°
2026-05-06 23:36 34.28053 -77.90994 39 ft 0 kts 60°
2026-05-06 23:36 34.28062 -77.90974 37 ft 5 kts 60°
2026-05-06 23:36 34.28083 -77.90922 40 ft 6 kts 73°
2026-05-06 23:37 34.28069 -77.90889 38 ft 2 kts 137°
2026-05-06 23:37 34.27997 -77.90858 38 ft 12 kts 157°
2026-05-06 23:37 34.27980 -77.90850 36 ft 0 kts 158°
2026-05-06 23:37 34.27973 -77.90846 38 ft 0 kts 158°
2026-05-06 23:38 34.27971 -77.90845 38 ft 0 kts 158°
2026-05-06 23:38 34.27907 -77.90816 36 ft 40 kts 160°
2026-05-06 23:38 34.27383 -77.90578 31 ft 119 kts 161°
2026-05-06 23:38 34.26418 -77.90179 334 ft 167 kts 165°
2026-05-06 23:39 34.25247 -77.89692 1149 ft 184 kts 168°
2026-05-06 23:39 34.23989 -77.89205 2068 ft 201 kts 168°
2026-05-06 23:39 34.22560 -77.88697 2853 ft 227 kts 170°
2026-05-06 23:39 34.20944 -77.88155 3622 ft 254 kts 169°
2026-05-06 23:40 34.19193 -77.87612 4629 ft 268 kts 173°
2026-05-06 23:40 34.17225 -77.87289 5006 ft 308 kts 179°
2026-05-06 23:40 34.15101 -77.87280 4995 ft 296 kts 194°
2026-05-06 23:40 34.13317 -77.88268 5133 ft 277 kts 227°
2026-05-06 23:41 34.12463 -77.90120 6065 ft 248 kts 253°
2026-05-06 23:41 34.12025 -77.92183 6217 ft 258 kts 259°
2026-05-06 23:41 34.11709 -77.94320 6555 ft 257 kts 269°
2026-05-06 23:41 34.11964 -77.96440 6971 ft 254 kts 281°
2026-05-06 23:42 34.12274 -77.98475 7817 ft 247 kts 278°
2026-05-06 23:42 34.12514 -78.00606 8352 ft 260 kts 277°
2026-05-06 23:42 34.12753 -78.02744 9352 ft 256 kts 278°
2026-05-06 23:42 34.13019 -78.04893 9987 ft 268 kts 278°
2026-05-06 23:43 34.13309 -78.07247 10006 ft 298 kts 278°
2026-05-06 23:43 34.13618 -78.09844 10030 ft 325 kts 278°
2026-05-06 23:43 34.13934 -78.12480 11258 ft 304 kts 278°
2026-05-06 23:43 34.14222 -78.14877 12678 ft 286 kts 278°
2026-05-06 23:44 34.14516 -78.17325 12910 ft 306 kts 278°
2026-05-06 23:44 34.14831 -78.19965 13158 ft 321 kts 278°
2026-05-06 23:44 34.15147 -78.22618 13986 ft 318 kts 278°
2026-05-06 23:44 34.15465 -78.25286 14511 ft 323 kts 278°
2026-05-06 23:45 34.15787 -78.27989 15058 ft 326 kts 278°
2026-05-06 23:45 34.16110 -78.30712 15631 ft 329 kts 278°
2026-05-06 23:45 34.16434 -78.33455 16170 ft 331 kts 278°
2026-05-06 23:45 34.16761 -78.36224 16706 ft 334 kts 278°
2026-05-06 23:46 34.17091 -78.39015 17181 ft 339 kts 278°
2026-05-06 23:46 34.17427 -78.41868 17031 ft 360 kts 278°
2026-05-06 23:46 34.17793 -78.44981 16733 ft 389 kts 278°
2026-05-06 23:46 34.18187 -78.48346 16438 ft 417 kts 278°
2026-05-06 23:47 34.18583 -78.51744 16133 ft 393 kts 278°
2026-05-06 23:47 34.18949 -78.54889 15841 ft 364 kts 278°
2026-05-06 23:47 34.19288 -78.57798 15561 ft 340 kts 278°
2026-05-06 23:47 34.19613 -78.60591 15277 ft 332 kts 278°
2026-05-06 23:48 34.19930 -78.63328 14995 ft 326 kts 278°
2026-05-06 23:48 34.20243 -78.66041 14715 ft 325 kts 278°
2026-05-06 23:48 34.20553 -78.68720 14436 ft 323 kts 278°
2026-05-06 23:48 34.20863 -78.71417 14161 ft 321 kts 277°
2026-05-06 23:49 34.21170 -78.74084 13980 ft 318 kts 277°
2026-05-06 23:49 34.21475 -78.76743 13994 ft 322 kts 277°
2026-05-06 23:49 34.21780 -78.79410 14002 ft 320 kts 277°
2026-05-06 23:49 34.22086 -78.82081 14005 ft 321 kts 277°
2026-05-06 23:50 34.22390 -78.84752 14001 ft 320 kts 277°
2026-05-06 23:50 34.22997 -78.90087 14002 ft 320 kts 277°
2026-05-06 23:50 34.23299 -78.92747 14001 ft 320 kts 277°
2026-05-06 23:51 34.23597 -78.95382 14003 ft 321 kts 277°
2026-05-06 23:51 34.23899 -78.98055 14005 ft 321 kts 277°
2026-05-06 23:51 34.24199 -79.00727 14004 ft 320 kts 277°
2026-05-06 23:51 34.24502 -79.03409 13998 ft 320 kts 277°
2026-05-06 23:52 34.24801 -79.06078 14010 ft 320 kts 277°
2026-05-06 23:52 34.25099 -79.08745 14014 ft 320 kts 277°
2026-05-06 23:52 34.25398 -79.11411 14023 ft 320 kts 277°
2026-05-06 23:52 34.25694 -79.14063 14020 ft 321 kts 277°
2026-05-06 23:53 34.26031 -79.16743 14014 ft 321 kts 282°
2026-05-06 23:53 34.26839 -79.19256 14026 ft 324 kts 296°
2026-05-06 23:53 34.27992 -79.21570 14020 ft 325 kts 298°
2026-05-06 23:53 34.29163 -79.23892 14017 ft 320 kts 298°
2026-05-06 23:54 34.30300 -79.26179 14021 ft 317 kts 298°
2026-05-06 23:54 34.31431 -79.28455 14018 ft 314 kts 298°
2026-05-06 23:54 34.32561 -79.30719 14023 ft 314 kts 298°
2026-05-06 23:54 34.33688 -79.32978 14020 ft 314 kts 298°
2026-05-06 23:55 34.34812 -79.35239 14023 ft 314 kts 298°
2026-05-06 23:55 34.35926 -79.37477 14025 ft 314 kts 298°
2026-05-06 23:55 34.37057 -79.39750 14021 ft 314 kts 298°
2026-05-06 23:55 34.38191 -79.42034 14016 ft 315 kts 298°
2026-05-06 23:56 34.39313 -79.44295 14017 ft 314 kts 298°
2026-05-06 23:56 34.40444 -79.46572 14019 ft 315 kts 298°
2026-05-06 23:56 34.41572 -79.48848 14013 ft 315 kts 298°
2026-05-06 23:56 34.42686 -79.51095 14010 ft 315 kts 298°
2026-05-06 23:57 34.43817 -79.53377 14010 ft 315 kts 298°
2026-05-06 23:57 34.44942 -79.55652 14011 ft 315 kts 298°
2026-05-06 23:57 34.46066 -79.57921 14006 ft 309 kts 298°
2026-05-06 23:57 34.47165 -79.60143 14010 ft 307 kts 297°
2026-05-06 23:58 34.48250 -79.62341 14012 ft 304 kts 297°
2026-05-06 23:58 34.49347 -79.64566 14006 ft 304 kts 297°
2026-05-06 23:58 34.50424 -79.66735 14005 ft 304 kts 298°
2026-05-06 23:58 34.51523 -79.68928 14008 ft 304 kts 298°
2026-05-06 23:59 34.52619 -79.71125 14004 ft 304 kts 297°
2026-05-06 23:59 34.53708 -79.73316 13998 ft 304 kts 297°
2026-05-06 23:59 34.54799 -79.75511 14001 ft 304 kts 297°
2026-05-06 23:59 34.55894 -79.77711 14004 ft 304 kts 297°
2026-05-07 00:00 34.56991 -79.79919 14000 ft 304 kts 297°
2026-05-07 00:00 34.58082 -79.82117 14002 ft 304 kts 297°
2026-05-07 00:00 34.59177 -79.84324 14000 ft 304 kts 297°
2026-05-07 00:00 34.59900 -79.85782 14003 ft 304 kts 297°
2026-05-07 00:01 34.61359 -79.88726 14007 ft 304 kts 297°
2026-05-07 00:01 34.62433 -79.90894 14007 ft 305 kts 297°
2026-05-07 00:01 34.63525 -79.93099 14006 ft 304 kts 297°
2026-05-07 00:01 34.64618 -79.95310 14010 ft 304 kts 297°
2026-05-07 00:02 34.65710 -79.97518 14002 ft 304 kts 297°
2026-05-07 00:02 34.66798 -79.99721 14007 ft 304 kts 297°
2026-05-07 00:02 34.67890 -80.01931 14005 ft 304 kts 297°
2026-05-07 00:02 34.68977 -80.04136 14002 ft 304 kts 297°
2026-05-07 00:03 34.70059 -80.06329 13995 ft 298 kts 297°
2026-05-07 00:03 34.71099 -80.08428 13989 ft 288 kts 297°
2026-05-07 00:03 34.72125 -80.10511 13990 ft 283 kts 297°
2026-05-07 00:03 34.73124 -80.12546 13985 ft 282 kts 297°
2026-05-07 00:04 34.74133 -80.14595 13984 ft 280 kts 297°
2026-05-07 00:04 34.75134 -80.16626 13992 ft 280 kts 297°
2026-05-07 00:04 34.76115 -80.18671 13995 ft 279 kts 294°
2026-05-07 00:04 34.77017 -80.20723 13999 ft 279 kts 295°
2026-05-07 00:05 34.77969 -80.22796 14001 ft 279 kts 295°
2026-05-07 00:05 34.78911 -80.24857 14006 ft 279 kts 295°
2026-05-07 00:05 34.79840 -80.26933 14006 ft 279 kts 294°
2026-05-07 00:05 34.80769 -80.29007 14006 ft 279 kts 295°
2026-05-07 00:06 34.81702 -80.31078 14011 ft 279 kts 295°
2026-05-07 00:06 34.82632 -80.33144 14009 ft 279 kts 295°
2026-05-07 00:06 34.83562 -80.35220 14011 ft 279 kts 295°
2026-05-07 00:06 34.84488 -80.37285 14006 ft 278 kts 295°
2026-05-07 00:07 34.85418 -80.39356 14008 ft 279 kts 295°
2026-05-07 00:07 34.86345 -80.41424 14007 ft 279 kts 295°
2026-05-07 00:07 34.87273 -80.43498 14005 ft 278 kts 294°
2026-05-07 00:07 34.88187 -80.45541 14000 ft 278 kts 294°
2026-05-07 00:08 34.89115 -80.47613 14002 ft 278 kts 294°
2026-05-07 00:08 34.90051 -80.49679 14001 ft 279 kts 295°
2026-05-07 00:08 34.91003 -80.51738 14001 ft 279 kts 295°
2026-05-07 00:08 34.91952 -80.53800 13997 ft 279 kts 295°
2026-05-07 00:09 34.92898 -80.55869 13996 ft 280 kts 295°
2026-05-07 00:09 34.93846 -80.57939 13996 ft 280 kts 295°
2026-05-07 00:09 34.94795 -80.60013 13998 ft 280 kts 295°
2026-05-07 00:09 34.95744 -80.62088 13996 ft 280 kts 295°
2026-05-07 00:10 34.96692 -80.64163 13997 ft 280 kts 295°
2026-05-07 00:10 34.97641 -80.66241 13869 ft 283 kts 294°
2026-05-07 00:10 34.98596 -80.68331 13569 ft 279 kts 294°
2026-05-07 00:10 34.99528 -80.70373 13266 ft 279 kts 294°
2026-05-07 00:11 35.00478 -80.72456 12948 ft 277 kts 294°
2026-05-07 00:11 35.01439 -80.74455 12570 ft 279 kts 301°
2026-05-07 00:11 35.02812 -80.76149 12203 ft 283 kts 313°
2026-05-07 00:11 35.03827 -80.77200 11961 ft 282 kts 313°
2026-05-07 00:12 35.05793 -80.79296 11468 ft 279 kts 312°
2026-05-07 00:12 35.07261 -80.80843 11106 ft 280 kts 317°
2026-05-07 00:12 35.08991 -80.81905 10993 ft 287 kts 336°
2026-05-07 00:12 35.11025 -80.82304 11010 ft 300 kts 349°
2026-05-07 00:13 35.13103 -80.82460 11004 ft 300 kts 349°
2026-05-07 00:13 35.15171 -80.82632 11003 ft 298 kts 349°
2026-05-07 00:13 35.17247 -80.82812 11006 ft 300 kts 349°
2026-05-07 00:13 35.19146 -80.82963 11001 ft 300 kts 349°
2026-05-07 00:14 35.21227 -80.83131 11001 ft 299 kts 349°
2026-05-07 00:14 35.23297 -80.83313 11002 ft 299 kts 348°
2026-05-07 00:14 35.25374 -80.83496 10928 ft 299 kts 349°
2026-05-07 00:14 35.27395 -80.83664 10561 ft 293 kts 349°
2026-05-07 00:15 35.28770 -80.83777 10300 ft 288 kts 349°
2026-05-07 00:15 35.30744 -80.83943 9931 ft 282 kts 348°
2026-05-07 00:15 35.32683 -80.84113 9533 ft 276 kts 349°
2026-05-07 00:15 35.35200 -80.84334 8998 ft 271 kts 348°
2026-05-07 00:16 35.37073 -80.84490 8598 ft 269 kts 348°
2026-05-07 00:16 35.38329 -80.84596 8329 ft 267 kts 348°
2026-05-07 00:16 35.40172 -80.84759 7903 ft 266 kts 348°
2026-05-07 00:16 35.42021 -80.84920 7464 ft 266 kts 348°
2026-05-07 00:17 35.43854 -80.85075 7025 ft 265 kts 349°
2026-05-07 00:17 35.45696 -80.85233 6608 ft 264 kts 349°
2026-05-07 00:17 35.47532 -80.85391 6176 ft 264 kts 349°
2026-05-07 00:17 35.49332 -80.85546 5741 ft 263 kts 349°
2026-05-07 00:18 35.51084 -80.86024 5288 ft 246 kts 322°
2026-05-07 00:18 35.52159 -80.87480 4892 ft 225 kts 283°
2026-05-07 00:18 35.52344 -80.89338 4480 ft 218 kts 265°
2026-05-07 00:18 35.52256 -80.91189 4043 ft 217 kts 262°
2026-05-07 00:19 35.52111 -80.92967 3991 ft 206 kts 254°
2026-05-07 00:19 35.51339 -80.94393 4030 ft 203 kts 215°
2026-05-07 00:19 35.50051 -80.95097 4005 ft 203 kts 202°
2026-05-07 00:19 35.48625 -80.95300 4017 ft 212 kts 185°
2026-05-07 00:20 35.47211 -80.95242 4002 ft 196 kts 186°
2026-05-07 00:20 35.45894 -80.95196 3998 ft 185 kts 186°
2026-05-07 00:20 35.44622 -80.95137 3997 ft 178 kts 186°
2026-05-07 00:20 35.43396 -80.95073 3998 ft 179 kts 185°
2026-05-07 00:21 35.42141 -80.95015 4001 ft 181 kts 185°
2026-05-07 00:21 35.40874 -80.94952 4003 ft 188 kts 185°
2026-05-07 00:21 35.39585 -80.94885 3996 ft 183 kts 186°
2026-05-07 00:21 35.38308 -80.94822 3951 ft 189 kts 186°
2026-05-07 00:22 35.37016 -80.94755 3727 ft 181 kts 185°
2026-05-07 00:22 35.35804 -80.94691 3502 ft 173 kts 185°
2026-05-07 00:22 35.34611 -80.94634 3315 ft 170 kts 186°
2026-05-07 00:22 35.33395 -80.94545 3114 ft 177 kts 182°
2026-05-07 00:23 35.32188 -80.94431 2993 ft 174 kts 185°
2026-05-07 00:23 35.30999 -80.94340 2984 ft 166 kts 184°
2026-05-07 00:23 35.29821 -80.94251 2874 ft 173 kts 183°
2026-05-07 00:23 35.28667 -80.94148 2657 ft 167 kts 183°
2026-05-07 00:24 35.27528 -80.94047 2417 ft 160 kts 184°
2026-05-07 00:24 35.26424 -80.93955 2172 ft 155 kts 183°
2026-05-07 00:24 35.25374 -80.93865 1917 ft 147 kts 182°
2026-05-07 00:24 35.24370 -80.93780 1663 ft 143 kts 181°
2026-05-07 00:25 35.23370 -80.93698 1245 ft 145 kts 178°
2026-05-07 00:25 35.22380 -80.93611 824 ft 146 kts 178°
2026-05-07 00:25 35.21435 -80.93535 735 ft 118 kts 177°
2026-05-07 00:25 35.20783 -80.93477 736 ft 75 kts 176°
2026-05-07 00:26 35.20516 -80.93515 734 ft 12 kts 223°
2026-05-07 00:26 35.20507 -80.93529 734 ft 0 kts 246°
2026-05-07 00:26 35.20505 -80.93584 733 ft 0 kts 299°
2026-05-07 00:27 35.20507 -80.93584 733 ft 1 kts 317°
2026-05-07 00:27 35.20534 -80.93584 733 ft 9 kts 355°
2026-05-07 00:28 35.20655 -80.93595 733 ft 22 kts 356°
2026-05-07 00:28 35.20816 -80.93609 733 ft 25 kts 355°
2026-05-07 00:28 35.20994 -80.93625 733 ft 27 kts 356°
2026-05-07 00:28 35.21194 -80.93642 733 ft 30 kts 355°
2026-05-07 00:29 35.21407 -80.93661 732 ft 31 kts 356°
2026-05-07 00:29 35.21573 -80.93692 733 ft 12 kts 314°
2026-05-07 00:30 35.21708 -80.93881 733 ft 17 kts 315°
2026-05-07 00:30 35.21807 -80.93990 731 ft 11 kts 304°
2026-05-07 00:30 35.21805 -80.94046 732 ft 7 kts 227°
2026-05-07 00:30 35.21786 -80.94116 732 ft 10 kts 278°
2026-05-07 00:31 35.21794 -80.94160 731 ft 0 kts 284°